Back to catalog

THOR BURNER 2 R/B

AliveSSO
NORAD 4513·ROCKET BODY·🇺🇸 United States

Launched Sep 3, 1970 from Vandenberg Space Force Base

Loading…

Next Passes (next 24 hours)

TLE

FreshSource: Space-Track

Epoch: Sep 14, 2026, 07:11 UTC

1 04513U 70070B   26257.29952429  .00000149  00000-0  67675-4 0  9990
2 04513  98.9797 232.0969 0065199 329.4098  30.3290 14.34842121922336

Track THOR BURNER 2 R/B in real time with AllMySat

Download on the App Store